Vorticity
8 8 11 17 22 17 11 19 21 8 7 36 28 15 31 22 27 14 6 10 4 5 8 0 2 -6 18 49 3 2 2 -0 1 0 8 9 7 9 12 7 2 3 4 4 5
9 9 13 12 13 26 17 25 20 4 21 18 21 20 18 25 21 18 5 9 12 5 7 2 4 2 -15 24 -1 4 3 4 6 4 12 5 9 12 11 2 2 5 4 3 5
11 14 9 -2 6 23 17 37 24 34 15 12 23 13 19 26 17 26 7 5 12 7 8 5 5 2 -9 23 -4 7 3 9 7 11 6 7 10 13 5 3 3 4 3 4 6
0 17 4 0 9 10 37 10 9 32 26 19 9 25 16 24 18 26 12 7 10 14 6 6 5 12 -40 31 7 -0 -1 5 8 9 5 9 13 8 1 6 3 2 3 3 5
6 5 16 2 8 9 24 0 15 29 23 12 20 17 13 23 23 21 15 6 8 17 8 5 5 3 -22 -29 -7 -2 -4 1 9 3 8 13 11 2 3 5 3 2 3 4 7
3 5 8 2 5 9 6 26 17 13 22 21 21 11 19 17 19 23 18 7 10 20 10 6 2 6 -2 -7 -12 -1 5 -0 9 4 13 12 5 0 5 4 2 2 3 4 7
6 3 6 10 6 9 9 47 6 -8 21 21 15 17 16 19 23 21 15 7 8 21 12 8 8 5 12 5 7 5 0 8 8 8 15 7 3 3 4 3 2 2 3 4 6
8 6 6 7 9 9 9 7 25 23 20 13 14 24 18 20 22 21 14 11 12 17 16 8 3 -7 14 3 8 5 6 6 6 13 9 5 3 4 4 4 2 2 3 3 5
8 9 5 4 9 7 9 5 18 16 18 22 23 12 14 12 15 14 12 13 16 16 13 6 12 4 -3 18 7 14 12 11 9 13 4 4 4 5 4 3 3 2 2 4 5
6 7 12 3 7 7 2 11 12 16 10 27 16 7 9 9 13 11 9 13 15 16 13 12 7 -7 31 12 9 6 6 9 13 9 3 4 5 4 3 3 2 2 3 3 4
5 7 7 8 5 4 8 8 15 -1 5 23 16 6 12 6 7 19 13 18 13 15 11 15 -5 38 -1 3 9 7 8 11 9 3 4 4 5 4 4 1 2 2 2 3 5
5 4 7 7 10 3 7 6 4 1 2 24 11 5 12 14 15 17 9 9 16 11 16 8 -6 -9 3 6 8 8 9 8 4 4 4 5 5 4 2 1 1 2 3 4 7
2 6 4 6 9 12 -2 9 7 3 5 24 6 7 17 13 11 9 9 6 9 13 14 14 6 9 16 8 5 9 7 5 3 5 6 5 4 2 2 2 2 4 4 6 7
3 2 6 4 10 7 8 6 1 3 3 17 24 7 7 7 2 4 2 9 7 4 2 5 7 10 -0 6 7 9 6 4 2 3 3 3 2 1 3 3 4 5 4 5 7
1 2 2 5 4 9 8 7 5 -1 11 12 18 16 4 4 14 8 6 -1 2 -0 -5 0 -0 2 5 6 6 7 5 4 2 2 2 1 3 1 3 5 7 8 9 7 7
3 1 2 3 5 5 8 7 8 1 11 10 2 17 6 8 8 7 2 3 3 2 5 1 6 7 5 6 6 4 4 3 5 4 7 -0 6 1 2 4 7 7 6 6 6
16 2 2 2 3 2 5 8 5 -4 9 6 13 17 19 12 4 5 5 3 6 8 7 8 4 6 4 5 5 4 5 8 9 6 3 -1 8 0 4 7 5 6 6 6 7
6 16 1 3 2 4 3 4 3 4 -0 6 5 6 9 15 12 9 12 10 8 6 10 13 10 1 9 7 4 7 3 5 8 5 3 5 10 6 5 8 9 11 14 15 14
7 4 16 2 4 2 4 7 1 11 5 3 5 4 9 5 15 7 12 12 15 8 10 9 12 9 4 6 9 8 5 7 8 6 5 5 7 6 5 7 10 10 6 5 7
17 7 18 6 3 4 -1 5 2 6 6 7 9 4 4 8 6 11 5 7 9 9 5 7 10 6 7 6 4 6 6 8 8 8 6 7 5 5 7 7 5 5 6 8 9
31 10 9 11 1 6 -0 6 3 4 7 7 8 7 1 9 5 6 6 9 7 8 6 8 6 5 6 6 8 9 7 5 5 3 4 6 7 5 4 6 7 8 7 7 6
26 6 3 10 9 2 3 5 3 5 7 8 4 6 6 4 4 8 8 6 7 7 7 11 8 7 7 6 4 3 3 3 3 6 5 3 1 6 7 8 6 6 6 8 8
78 4 4 5 12 6 -0 6 3 2 5 9 7 6 6 4 7 5 5 7 8 5 5 7 3 5 3 3 4 3 4 5 5 3 2 4 6 9 7 7 5 8 9 9 9
10 39 -3 11 11 12 -7 9 5 3 4 5 8 5 7 6 5 4 2 3 6 6 8 6 4 4 2 5 1 3 2 2 3 4 8 7 7 7 5 7 5 5 6 5 6
5 26 19 26 23 7 11 3 4 4 4 4 6 7 7 7 9 7 8 8 7 6 6 5 3 4 3 5 6 5 5 6 7 8 6 6 6 6 6 5 7 5 6 8 7
-1 -14 61 -19 14 15 14 -10 15 1 3 5 5 7 8 9 8 11 9 4 3 7 7 7 8 7 6 6 6 6 6 7 8 9 11 12 10 12 11 8 8 7 6 7 7
24 32 23 58 -11 31 9 24 -17 10 6 5 6 3 5 4 4 8 6 5 5 2 -0 1 2 4 4 4 5 4 5 6 7 7 9 8 6 5 7 6 6 6 5 4 4
Height
5719 5708 5699 5690 5681 5673 5666 5663 5661 5658 5657 5655 5655 5660 5665 5672 5683 5700 5719 5733 5749 5762 5774 5786 5794 5801 5806 5809 5815 5825 5832 5839 5843 5846 5848 5850 5851 5853 5855 5858 5860 5862 5863 5864 5864
5719 5709 5699 5690 5680 5670 5662 5658 5655 5652 5650 5648 5651 5654 5661 5669 5680 5696 5710 5726 5742 5756 5769 5780 5788 5794 5801 5801 5808 5820 5829 5835 5839 5842 5844 5846 5848 5849 5852 5854 5857 5859 5860 5860 5861
5721 5710 5701 5691 5681 5670 5659 5653 5650 5647 5644 5645 5648 5651 5658 5667 5679 5692 5707 5722 5737 5751 5763 5772 5781 5787 5797 5795 5800 5816 5825 5830 5835 5838 5840 5842 5844 5846 5849 5851 5853 5856 5857 5857 5858
5724 5714 5703 5693 5682 5672 5661 5654 5650 5645 5642 5644 5648 5653 5659 5668 5679 5689 5704 5718 5732 5745 5758 5767 5774 5785 5792 5797 5804 5812 5820 5826 5830 5834 5836 5838 5840 5843 5846 5849 5850 5852 5853 5854 5854
5724 5717 5707 5696 5685 5676 5665 5658 5652 5647 5646 5649 5652 5655 5662 5670 5678 5689 5702 5716 5730 5741 5754 5764 5772 5781 5791 5795 5802 5809 5817 5823 5826 5830 5832 5835 5837 5840 5842 5845 5846 5848 5849 5850 5850
5726 5718 5710 5701 5689 5680 5671 5663 5657 5654 5653 5654 5657 5661 5665 5671 5679 5690 5702 5715 5727 5738 5749 5761 5771 5779 5787 5793 5800 5807 5814 5819 5823 5826 5829 5831 5834 5837 5839 5841 5843 5844 5845 5845 5845
5726 5720 5713 5706 5694 5684 5677 5668 5665 5661 5660 5661 5662 5666 5669 5674 5682 5692 5703 5715 5725 5735 5747 5759 5768 5777 5784 5791 5798 5804 5811 5815 5820 5822 5825 5828 5831 5833 5835 5837 5839 5840 5841 5841 5840
5727 5722 5716 5709 5702 5690 5683 5678 5671 5670 5669 5668 5669 5671 5673 5679 5686 5694 5706 5716 5724 5733 5745 5755 5764 5773 5781 5788 5795 5801 5807 5812 5816 5818 5821 5824 5828 5829 5832 5834 5836 5836 5836 5836 5836
5727 5723 5719 5713 5706 5698 5690 5685 5682 5679 5678 5675 5676 5676 5680 5686 5692 5698 5708 5716 5723 5733 5742 5753 5763 5772 5779 5785 5791 5797 5803 5808 5811 5814 5817 5820 5823 5825 5828 5830 5831 5831 5832 5831 5830
5728 5723 5721 5716 5710 5705 5698 5693 5690 5687 5686 5683 5683 5685 5689 5692 5696 5703 5710 5717 5725 5732 5741 5752 5761 5771 5776 5782 5789 5796 5800 5804 5807 5810 5813 5816 5819 5821 5823 5825 5826 5826 5826 5826 5825
5727 5723 5720 5719 5714 5708 5704 5699 5698 5695 5693 5691 5690 5692 5695 5697 5701 5706 5712 5718 5725 5734 5742 5751 5762 5771 5778 5782 5787 5791 5794 5798 5801 5805 5808 5811 5814 5816 5819 5820 5820 5820 5820 5820 5819
5727 5723 5720 5718 5716 5711 5707 5702 5702 5701 5698 5696 5696 5698 5699 5701 5704 5709 5715 5722 5727 5735 5743 5752 5760 5767 5772 5779 5783 5786 5789 5794 5797 5800 5803 5806 5808 5811 5813 5813 5814 5814 5813 5813 5812
5726 5721 5718 5716 5716 5713 5708 5705 5703 5703 5702 5701 5699 5701 5702 5705 5707 5712 5717 5723 5730 5737 5743 5750 5759 5763 5770 5774 5777 5782 5785 5789 5792 5794 5798 5800 5803 5806 5807 5807 5807 5807 5806 5806 5805
5723 5720 5717 5714 5715 5712 5710 5706 5701 5704 5705 5705 5703 5703 5705 5707 5710 5714 5718 5724 5730 5735 5741 5747 5754 5760 5764 5768 5773 5777 5780 5783 5786 5789 5792 5794 5797 5798 5799 5800 5800 5799 5799 5799 5798
5714 5716 5714 5711 5710 5709 5707 5706 5702 5701 5704 5706 5706 5706 5706 5708 5713 5715 5719 5723 5728 5734 5740 5747 5750 5754 5758 5765 5767 5771 5774 5778 5780 5783 5785 5788 5787 5792 5792 5792 5792 5792 5792 5791 5790
5704 5705 5707 5708 5705 5705 5703 5702 5702 5700 5700 5703 5704 5705 5707 5708 5711 5714 5718 5722 5726 5730 5734 5740 5745 5750 5754 5758 5761 5765 5768 5770 5773 5775 5776 5780 5781 5782 5785 5785 5785 5784 5783 5782 5781
5692 5694 5696 5699 5699 5700 5697 5697 5697 5695 5699 5700 5701 5703 5706 5708 5710 5713 5716 5720 5724 5728 5732 5737 5740 5744 5748 5751 5754 5759 5762 5764 5766 5767 5769 5773 5774 5775 5775 5777 5777 5776 5775 5774 5772
5679 5680 5684 5686 5688 5690 5690 5688 5687 5693 5692 5695 5697 5698 5702 5704 5706 5709 5712 5715 5719 5723 5728 5732 5736 5739 5742 5746 5750 5752 5755 5757 5757 5760 5763 5765 5765 5768 5768 5768 5768 5767 5766 5765 5762
5662 5664 5669 5671 5672 5675 5679 5676 5681 5686 5686 5689 5691 5693 5696 5698 5702 5705 5708 5712 5716 5720 5723 5726 5729 5732 5737 5740 5743 5746 5748 5751 5752 5753 5754 5756 5758 5760 5759 5759 5758 5757 5757 5755 5753
5634 5641 5653 5651 5655 5657 5659 5669 5671 5677 5678 5679 5683 5685 5689 5692 5695 5698 5702 5707 5710 5714 5716 5720 5723 5726 5729 5732 5735 5738 5742 5743 5743 5744 5745 5746 5748 5749 5750 5749 5749 5748 5746 5744 5743
5603 5611 5627 5630 5633 5635 5638 5658 5663 5667 5669 5670 5672 5676 5681 5684 5688 5691 5695 5702 5704 5707 5710 5713 5717 5721 5722 5725 5728 5731 5732 5734 5736 5736 5736 5737 5739 5738 5739 5739 5739 5737 5735 5734 5732
5571 5583 5598 5604 5609 5616 5624 5643 5653 5654 5657 5660 5662 5666 5671 5674 5678 5681 5687 5691 5694 5698 5702 5706 5707 5710 5714 5716 5718 5721 5723 5725 5726 5729 5728 5726 5728 5727 5729 5730 5728 5726 5724 5723 5722
5542 5560 5572 5579 5586 5597 5609 5623 5633 5640 5645 5648 5652 5656 5661 5665 5668 5673 5678 5682 5686 5690 5692 5696 5696 5701 5704 5707 5710 5713 5717 5717 5717 5717 5716 5718 5721 5721 5719 5718 5716 5716 5715 5713 5711
5523 5533 5546 5555 5570 5580 5592 5604 5612 5623 5630 5635 5641 5644 5649 5654 5659 5664 5668 5673 5677 5681 5683 5686 5688 5692 5697 5699 5701 5702 5705 5706 5705 5705 5709 5709 5711 5710 5707 5706 5705 5704 5702 5701 5699
5510 5517 5529 5537 5553 5566 5576 5586 5595 5605 5613 5621 5627 5633 5640 5644 5649 5653 5659 5663 5667 5670 5673 5676 5679 5682 5685 5687 5688 5691 5693 5695 5695 5697 5696 5702 5701 5699 5696 5694 5691 5690 5688 5687 5685
5500 5507 5513 5524 5538 5547 5553 5566 5581 5589 5596 5605 5613 5623 5626 5631 5638 5644 5647 5651 5654 5658 5660 5663 5666 5670 5672 5674 5676 5678 5680 5683 5685 5687 5687 5687 5687 5688 5684 5681 5680 5678 5676 5674 5672
5482 5489 5499 5507 5520 5530 5539 5555 5568 5575 5581 5589 5598 5605 5610 5619 5620 5626 5632 5637 5640 5646 5648 5650 5654 5659 5659 5663 5665 5663 5670 5674 5675 5676 5676 5674 5676 5673 5671 5670 5668 5665 5663 5661 5659